Showing default

NATO 2A, 4353

Orbit data source: Space-Track

NATO 2A, 4353 is a payload satellite owned by NATO (NATO) in GEO that was launched on Fri, 20 Mar 1970 UTC via a THOR DELTA M launch vehicle from the Air Force Eastern Test Range (AFETR). Payload-class satellites include a variety of spacecraft equipped with specific instruments for various scientific and technological missions. These include communications satellites like Starlink; space stations such as the ISS; scientific satellites like the Hubble; Earth observation satellites from companies like Planet Labs, Umbra, and HawkEye 360; GPS; miniature CubeSats for education and research; and military/defense satellites.

Loading next visibility...
Identifier
4353, 1970-021A
Orbit
GEO
Country
Flag of UnknownUnknown / NATO
Related business
Manufacturer
Philco-Ford
Mission
Non-operational Defense Communications
Bus & Motor
SKYNET, STAR 17A
Mass
243 kg wet, ~107 kg dry
Launch date (UTC)
1970-03-20 (56 years ago)
Launch vehicle
THOR DELTA M
Launch site
Air Force Eastern Test Range (AFETR)
Object type
Payload
Rocket body
Debris
Shape & HBR
Cyl, 0.7 m
Radar Cross Section
1.131 m², Large (>1 m²)

Expand to show TLE details & history
Last TLE update: 1 day ago

TLE from 1 day ago
0 NATO 2A
1 04353U 70021A   25260.63238052 -.00000078  00000-0  00000-0 0  9995
2 04353   1.0678 287.3075 0003637 283.4575 263.6393  1.00269973123032
Epoch: 2025-09-17T15:10Z
TLE epoch observation values (Epoch: 2025-09-17T15:10:37.676Z)
Latitude
-0.14624°
Longitude
-110.09623°
Altitude
35,788.245 km
Speed
3.075 km/s
True Right ascension
07h 37m 27s
True Declination
0° 08' 46"
Sunlit
Object was in daylight at epoch
Visualization orbit readout
Latitude
Unknown
Longitude
Unknown
Altitude
Unknown
Speed
Unknown
Apparent Right ascension
Unknown
Apparent Declination
Unknown
Sunlit
N/A
Visualization observer readout
Local Sidereal Time
09:18:38
Azimuth
Unknown
Elevation
Unknown
Doppler factor
Unknown
Orbital elements
Apogee altitude
35,803.509 km
Perigee altitude
35,772.837 km
Semi-major axis
42,166.31 km
Eccentricity
0.00036
Inclination
1.0678°
RAAN
287.3075°
Arg. of periapsis
283.4575°
True anomaly
263.59788°
Mean anomaly
263.6393°
Eccentric anomaly
263.61859°
Mean motion
0.25067 °/min
Orbital period
1,436.18 mins
BSTAR
0
Loading maneuver chart data...
Computing Atmospheric mass density...
Loading historical data...
Loading historical data...
Loading historical data...
Loading historical data...
Loading historical data...
Loading historical data...
Loading historical data...
Other satellites on launch #21 in the year 1970 (1970-03-20 UTC)

Documentation

Showing up to 5 results
|